Location: Unspecified
(50.1700°N, 6.8600°E)
Time: 02:11:56
(UTC+00:00)

ALOS - Pass Details

Date: 24 January 2019
Orbit: 684 x 685 km, 97.8° (Epoch: 19 February)

Event Time Altitude Azimuth Distance (km) Brightness Sun altitude
Rises 05:32:36 0° 16° (NNE) 3,065 5.7 -16.6°
Reaches altitude 10° 05:34:54 10° 21° (NNE) 2,144 4.9 -16.2°
Maximum altitude 05:39:31 57° 100° (E) 806 3.0 -15.5°
Drops below altitude 10° 05:44:06 10° 180° (S) 2,126 5.0 -14.7°
Sets 05:46:22 0° 184° (S) 3,037 5.7 -14.4°
